Weather History for Cushing, OK

Change the Weather History Date:

Saturday, May 25, 2013

  Actual Average Record
Temperature  
Mean Temperature 72 °F -  
Max Temperature 80 °F 80 °F 96 °F (2006)
Min Temperature 64 °F 60 °F 48 °F (1979)
Cooling Degree Days 7    
Growing Degree Days 22 (Base 50)    
Moisture  
Dew Point 68 °F    
Average Humidity 85    
Maximum Humidity 100    
Minimum Humidity 69    
Precipitation  
Precipitation 0.00 in - - ()
Sea Level Pressure  
Sea Level Pressure 30.11 in    
Wind  
Wind Speed 6 mph (SSE)    
Max Wind Speed 15 mph    
Max Gust Speed 23 mph    
Visibility 10 miles    
Events      
Averages and records for this station are not official NWS values.
T = Trace of Precipitation, MM = Missing Value Source: NWS Daily Summary

Daily Weather History Graph

Daily Weather History Graph

Search for Another Location

Airport:

Trip Planner

Search our weather history database for the weather conditions in past years. The results will help you decide how hot, cold, wet, or windy it might be!

Date:

Astronomy

May. 25, 2013 Rise Set
Actual Time 6:14 AM CDT 8:33 PM CDT
Civil Twilight 5:45 AM CDT 9:03 PM CDT
Nautical Twilight 5:09 AM CDT 9:39 PM CDT
Astronomical Twilight 4:30 AM CDT 10:18 PM CDT
Moon 9:23 PM CDT (5/25) 6:42 AM CDT (5/25)
Length of Visible Light 15h 17m
Length of Day
14h 19m
Full, 100% of the Moon is Illuminated
May 25
Full
May 31
Last Quarter
Jun 8
New
Jun 16
First Quarter
Jun 23
Full

Hourly Weather History & Observations

Time (CDT) Temp. Heat Index Dew Point Humidity Pressure Visibility Wind Dir Wind Speed Gust Speed Precip Events Conditions
12:15 AM 68.0 °F - 68.0 °F 100% 30.12 in 10.0 mi Calm Calm - N/A   Scattered Clouds
12:35 AM 68.0 °F - 68.0 °F 100% 30.13 in 10.0 mi SSE 3.5 mph - N/A   Scattered Clouds
12:55 AM 68.0 °F - 68.0 °F 100% 30.14 in 10.0 mi SSE 5.8 mph - N/A   Mostly Cloudy
1:15 AM 69.8 °F - 68.0 °F 94% 30.15 in 10.0 mi South 10.4 mph 18.4 mph N/A   Mostly Cloudy
1:35 AM 69.8 °F - 68.0 °F 94% 30.15 in 10.0 mi South 9.2 mph 18.4 mph N/A   Overcast
1:55 AM 69.8 °F - 66.2 °F 88% 30.15 in 10.0 mi South 8.1 mph - N/A   Overcast
2:15 AM 69.8 °F - 66.2 °F 88% 30.15 in 10.0 mi South 6.9 mph - N/A   Overcast
2:35 AM 69.8 °F - 68.0 °F 94% 30.15 in 10.0 mi South 5.8 mph - N/A   Overcast
2:55 AM 69.8 °F - 66.2 °F 88% 30.14 in 10.0 mi South 5.8 mph - N/A   Overcast
3:15 AM 68.0 °F - 66.2 °F 94% 30.14 in 10.0 mi South 3.5 mph - N/A   Mostly Cloudy
3:35 AM 68.0 °F - 66.2 °F 94% 30.14 in 10.0 mi Calm Calm - N/A   Scattered Clouds
3:55 AM 68.0 °F - 66.2 °F 94% 30.14 in 10.0 mi Calm Calm - N/A   Scattered Clouds
4:15 AM 66.2 °F - 66.2 °F 100% 30.13 in 10.0 mi SSE 3.5 mph - N/A   Clear
4:35 AM 66.2 °F - 64.4 °F 94% 30.13 in 10.0 mi Calm Calm - N/A   Clear
4:55 AM 64.4 °F - 64.4 °F 100% 30.12 in 10.0 mi SSE 6.9 mph - N/A   Clear
5:15 AM 64.4 °F - 64.4 °F 100% 30.13 in 10.0 mi SSE 5.8 mph - N/A   Clear
5:35 AM 64.4 °F - 64.4 °F 100% 30.13 in 10.0 mi SSE 4.6 mph - N/A   Clear
5:55 AM 64.4 °F - 64.4 °F 100% 30.14 in 10.0 mi SSE 4.6 mph - N/A   Clear
6:15 AM 64.4 °F - 64.4 °F 100% 30.15 in 10.0 mi SE 3.5 mph - N/A   Clear
6:35 AM 64.4 °F - 64.4 °F 100% 30.16 in 10.0 mi SE 4.6 mph - N/A   Clear
6:55 AM 64.4 °F - 64.4 °F 100% 30.16 in 10.0 mi ESE 5.8 mph - N/A   Clear
7:15 AM 64.4 °F - 64.4 °F 100% 30.17 in 10.0 mi SE 4.6 mph - N/A   Clear
7:35 AM 64.4 °F - 64.4 °F 100% 30.17 in 10.0 mi SE 5.8 mph - N/A   Clear
7:55 AM 64.4 °F - 64.4 °F 100% 30.16 in 10.0 mi SSE 6.9 mph - N/A   Clear
8:15 AM 68.0 °F - 64.4 °F 88% 30.17 in 10.0 mi SE 6.9 mph - N/A   Clear
8:35 AM 68.0 °F - 64.4 °F 88% 30.17 in 10.0 mi SE 11.5 mph 16.1 mph N/A   Mostly Cloudy
8:55 AM 68.0 °F - 64.4 °F 88% 30.16 in 10.0 mi SSE 9.2 mph 17.3 mph N/A   Scattered Clouds
9:15 AM 69.8 °F - 64.4 °F 83% 30.15 in 10.0 mi SSE 8.1 mph 16.1 mph N/A   Scattered Clouds
9:35 AM 69.8 °F - 64.4 °F 83% 30.15 in 10.0 mi SSE 6.9 mph 17.3 mph N/A   Scattered Clouds
9:55 AM 69.8 °F - 64.4 °F 83% 30.15 in 10.0 mi SE 9.2 mph - N/A   Scattered Clouds
10:15 AM 71.6 °F - 64.4 °F 78% 30.16 in 10.0 mi South 10.4 mph 20.7 mph N/A   Scattered Clouds
10:35 AM 71.6 °F - 64.4 °F 78% 30.16 in 10.0 mi SSE 10.4 mph 17.3 mph N/A   Scattered Clouds
10:55 AM 71.6 °F - 64.4 °F 78% 30.16 in 10.0 mi South 13.8 mph 19.6 mph N/A   Scattered Clouds
11:15 AM 73.4 °F - 66.2 °F 78% 30.15 in 10.0 mi South 11.5 mph 18.4 mph N/A   Scattered Clouds
11:35 AM 75.2 °F - 68.0 °F 78% 30.14 in 10.0 mi SSE 9.2 mph - N/A   Clear
11:55 AM 77.0 °F - 68.0 °F 74% 30.14 in 10.0 mi South 10.4 mph 19.6 mph N/A   Clear
12:15 PM 77.0 °F - 68.0 °F 74% 30.14 in 10.0 mi South 15.0 mph 23.0 mph N/A   Clear
12:35 PM 78.8 °F - 68.0 °F 69% 30.13 in 10.0 mi South 11.5 mph 18.4 mph N/A   Clear
12:55 PM 78.8 °F - 68.0 °F 69% 30.13 in 10.0 mi SSE 13.8 mph 19.6 mph N/A   Clear
1:15 PM 78.8 °F - 69.8 °F 74% 30.13 in 10.0 mi South 11.5 mph 18.4 mph N/A   Clear
1:35 PM 80.6 °F 83.9 °F 69.8 °F 70% 30.13 in 10.0 mi South 9.2 mph - N/A   Scattered Clouds
1:55 PM 80.6 °F 83.9 °F 69.8 °F 70% 30.12 in 10.0 mi South 10.4 mph 20.7 mph N/A   Scattered Clouds
2:15 PM 78.8 °F - 69.8 °F 74% 30.12 in 10.0 mi South 15.0 mph 19.6 mph N/A   Mostly Cloudy
2:35 PM 80.6 °F 83.9 °F 69.8 °F 70% 30.10 in 10.0 mi South 11.5 mph 19.6 mph N/A   Scattered Clouds
2:55 PM 80.6 °F 83.9 °F 69.8 °F 70% 30.10 in 10.0 mi South 13.8 mph 19.6 mph N/A   Clear
3:15 PM 80.6 °F 83.9 °F 69.8 °F 70% 30.10 in 10.0 mi South 10.4 mph - N/A   Clear
3:35 PM 80.6 °F 83.9 °F 69.8 °F 70% 30.10 in 10.0 mi South 11.5 mph 17.3 mph N/A   Scattered Clouds
3:55 PM 80.6 °F 83.9 °F 69.8 °F 70% 30.09 in 10.0 mi SSE 11.5 mph 17.3 mph N/A   Scattered Clouds
4:15 PM 80.6 °F 83.9 °F 69.8 °F 70% 30.09 in 10.0 mi South 8.1 mph - N/A   Scattered Clouds
4:35 PM 80.6 °F 83.9 °F 69.8 °F 70% 30.08 in 10.0 mi South 11.5 mph 16.1 mph N/A   Clear
4:55 PM 80.6 °F 83.9 °F 69.8 °F 70% 30.07 in 10.0 mi SSE 9.2 mph - N/A   Scattered Clouds
5:15 PM 80.6 °F 83.9 °F 69.8 °F 70% 30.07 in 10.0 mi SSE 10.4 mph 17.3 mph N/A   Scattered Clouds
5:35 PM 80.6 °F 83.9 °F 69.8 °F 70% 30.07 in 10.0 mi South 10.4 mph 18.4 mph N/A   Scattered Clouds
5:55 PM 80.6 °F 83.9 °F 69.8 °F 70% 30.05 in 10.0 mi South 9.2 mph - N/A   Clear
6:15 PM 80.6 °F 83.9 °F 69.8 °F 70% 30.05 in 10.0 mi SSE 8.1 mph - N/A   Scattered Clouds
6:35 PM 80.6 °F 83.9 °F 69.8 °F 70% 30.04 in 10.0 mi SSE 8.1 mph 16.1 mph N/A   Clear
6:55 PM 78.8 °F - 69.8 °F 74% 30.05 in 10.0 mi SSE 8.1 mph - N/A   Clear
7:15 PM 77.0 °F - 69.8 °F 78% 30.04 in 10.0 mi South 10.4 mph - N/A   Clear
7:35 PM 77.0 °F - 69.8 °F 78% 30.03 in 10.0 mi South 6.9 mph - N/A   Clear
7:55 PM 77.0 °F - 69.8 °F 78% 30.03 in 10.0 mi SSE 9.2 mph - N/A   Clear
8:15 PM 75.2 °F - 69.8 °F 83% 30.03 in 10.0 mi SSE 8.1 mph - N/A   Scattered Clouds
8:35 PM 73.4 °F - 69.8 °F 88% 30.01 in 10.0 mi SSE 5.8 mph - N/A   Mostly Cloudy
8:55 PM 73.4 °F - 69.8 °F 88% 30.01 in 10.0 mi South 5.8 mph - N/A   Mostly Cloudy
9:15 PM 71.6 °F - 69.8 °F 94% 30.00 in 10.0 mi SSE 5.8 mph - N/A   Scattered Clouds
9:35 PM 71.6 °F - 69.8 °F 94% 30.01 in 10.0 mi SSE 4.6 mph - N/A   Clear
9:55 PM 71.6 °F - 69.8 °F 94% 30.02 in 10.0 mi South 3.5 mph - N/A   Clear
10:15 PM 69.8 °F - 69.8 °F 100% 30.03 in 10.0 mi South 3.5 mph - N/A   Clear
10:35 PM 69.8 °F - 69.8 °F 100% 30.05 in 10.0 mi South 5.8 mph - N/A   Clear
10:55 PM 69.8 °F - 68.0 °F 94% 30.06 in 10.0 mi South 4.6 mph - N/A   Clear
11:15 PM 69.8 °F - 68.0 °F 94% 30.07 in 10.0 mi South 6.9 mph - N/A   Clear
11:35 PM 68.0 °F - 68.0 °F 100% 30.07 in 10.0 mi SSE 3.5 mph - N/A   Clear
11:55 PM 68.0 °F - 66.2 °F 94% 30.06 in 10.0 mi South 5.8 mph - N/A   Clear